GW6284 Weather Reports


Display with metric or nautical units.
time (UTC)temp
F
wind
direction
speed
MPH
gust
MPH
rain 1hr
in
rain 24hr
in
rain mn
in
humidity
%
barometer
mb
20260505124145 74 124 10.0 12.0 0.00 0.00 0.00 65 348.1
20260505123641 74 130 11.0 12.0 0.00 0.00 0.00 67 348.1
20260505123138 74 127 11.0 13.0 0.00 0.00 0.00 66 348.2
20260505122634 74 118 11.0 11.0 0.00 0.00 0.00 66 348.2
20260505122132 73 134 11.0 12.0 0.00 0.00 0.00 67 348.3
20260505121628 73 125 11.0 13.0 0.00 0.00 0.00 67 348.2
20260505121125 73 135 11.0 12.0 0.00 0.00 0.00 66 348.1
20260505120621 73 127 11.0 13.0 0.00 0.00 0.00 66 348.2
20260505120117 73 133 11.0 12.0 0.00 0.00 0.00 67 348.1
20260505115612 73 126 11.0 12.0 0.00 0.00 0.00 67 348.2
20260505115109 73 119 10.0 12.0 0.00 0.00 0.00 66 348.2
20260505114606 73 127 11.0 14.0 0.00 0.00 0.00 67 348.2
20260505114103 73 118 11.0 13.0 0.00 0.00 0.00 67 348.2
20260505113559 73 127 11.0 13.0 0.00 0.00 0.00 67 348.1
20260505113056 73 122 11.0 13.0 0.00 0.00 0.00 67 348.3
20260505112552 73 122 11.0 13.0 0.00 0.00 0.00 68 348.3
20260505112051 72 132 8.0 12.0 0.00 0.00 0.00 69 348.3
20260505111549 72 133 9.0 13.0 0.00 0.00 0.00 69 348.2
20260505111046 72 123 11.0 14.0 0.00 0.00 0.00 69 348.4
20260505110542 72 122 13.0 14.0 0.00 0.00 0.00 69 348.3
20260505102015 72 127 12.0 14.0 0.00 0.00 0.00 70 348.4
20260505101513 72 135 14.0 15.0 0.00 0.00 0.00 70 348.3
20260505101009 72 134 11.0 13.0 0.00 0.00 0.00 70 348.3
20260505100506 72 128 12.0 14.0 0.00 0.00 0.00 70 348.3
20260505100003 72 126 14.0 14.0 0.00 0.00 0.00 70 348.3
20260505095459 72 128 12.0 15.0 0.00 0.00 0.00 70 348.2
20260505094955 72 129 14.0 15.0 0.00 0.00 0.00 70 348.3
20260505094453 72 130 12.0 15.0 0.00 0.00 0.00 70 348.3
20260505093949 72 125 9.0 14.0 0.00 0.00 0.00 70 348.4
20260505093445 72 123 14.0 15.0 0.00 0.00 0.00 69 348.3
20260505092942 72 124 13.0 15.0 0.00 0.00 0.00 70 348.4
20260505092440 72 133 14.0 16.0 0.00 0.00 0.00 70 348.5
20260505091938 72 138 14.0 15.0 0.00 0.00 0.00 70 348.3
20260505091435 72 138 12.0 13.0 0.00 0.00 0.00 70 348.3
20260505090933 72 140 13.0 16.0 0.00 0.00 0.00 69 348.2
20260505090431 72 139 11.0 15.0 0.00 0.00 0.00 69 348.2
20260505085928 72 131 11.0 15.0 0.00 0.00 0.00 69 348.4
20260505085426 72 131 13.0 16.0 0.00 0.00 0.00 69 348.3
20260505084924 72 139 11.0 12.0 0.00 0.00 0.00 69 348.3
20260505084422 72 121 8.0 14.0 0.00 0.00 0.00 68 348.2
20260505083919 72 129 7.0 11.0 0.00 0.00 0.00 68 348.3
20260505083417 72 140 9.0 13.0 0.00 0.00 0.00 69 348.4
20260505082913 72 142 11.0 13.0 0.00 0.00 0.00 69 348.2
20260505082408 72 130 14.0 14.0 0.00 0.00 0.00 69 348.3
20260505081906 72 124 13.0 14.0 0.00 0.00 0.00 68 348.3
20260505081402 72 129 9.0 15.0 0.00 0.00 0.00 67 348.3
20260505080859 72 134 11.0 14.0 0.00 0.00 0.00 68 348.2
20260505080355 72 126 11.0 13.0 0.00 0.00 0.00 68 348.3
20260505075851 72 126 13.0 14.0 0.00 0.00 0.00 67 348.2
20260505075348 72 132 11.0 14.0 0.00 0.00 0.00 68 348.2
20260505074845 72 136 10.0 13.0 0.00 0.00 0.00 68 348.3
20260505074342 72 133 14.0 15.0 0.00 0.00 0.00 68 348.3
20260505073839 72 123 8.0 14.0 0.00 0.00 0.00 68 348.4
20260505073337 72 124 13.0 14.0 0.00 0.00 0.00 69 348.3
20260505072834 72 122 7.0 12.0 0.00 0.00 0.00 68 348.3
20260505072330 72 134 8.0 12.0 0.00 0.00 0.00 69 348.2
20260505071826 72 131 11.0 15.0 0.00 0.00 0.00 68 348.4
20260505071323 72 128 8.0 13.0 0.00 0.00 0.00 68 348.3
20260505070821 72 124 9.0 16.0 0.00 0.00 0.00 69 348.2
20260505070318 72 135 14.0 15.0 0.00 0.00 0.00 69 348.4
20260505065812 72 137 14.0 17.0 0.00 0.00 0.00 69 348.3
20260505065309 72 147 13.0 16.0 0.00 0.00 0.00 68 348.2
20260505064807 72 139 11.0 16.0 0.00 0.00 0.00 69 348.4
20260505064303 72 132 13.0 15.0 0.00 0.00 0.00 69 348.3
20260505063801 72 133 14.0 17.0 0.00 0.00 0.00 69 348.4
20260505063257 72 138 15.0 17.0 0.00 0.00 0.00 68 348.2
20260505062754 72 130 14.0 16.0 0.00 0.00 0.00 68 348.3
20260505062252 72 140 14.0 17.0 0.00 0.00 0.00 69 348.2
20260505061748 72 136 10.0 18.0 0.00 0.00 0.00 69 348.2
20260505061246 72 138 13.0 17.0 0.00 0.00 0.00 69 348.3
20260505060743 72 136 11.0 17.0 0.00 0.00 0.00 69 348.3
20260505060241 72 134 14.0 15.0 0.00 0.00 0.00 69 348.4
20260505055736 72 136 15.0 18.0 0.00 0.00 0.00 69 348.3
20260505055232 72 126 16.0 19.0 0.00 0.00 0.00 69 348.4
20260505054730 72 128 15.0 17.0 0.00 0.00 0.00 70 348.2
20260505054227 73 137 11.0 18.0 0.00 0.00 0.00 70 348.4
20260505053726 72 140 15.0 18.0 0.00 0.00 0.00 69 348.3
20260505053222 73 137 15.0 18.0 0.00 0.00 0.00 69 348.3
20260505052719 73 139 16.0 20.0 0.00 0.00 0.00 68 348.3
20260505052215 73 137 17.0 19.0 0.00 0.00 0.00 68 348.3
20260505051713 73 133 13.0 19.0 0.00 0.00 0.00 69 348.3
20260505051211 73 132 17.0 19.0 0.00 0.00 0.00 67 348.3
20260505050709 73 131 17.0 19.0 0.00 0.00 0.00 68 348.2
20260505050207 73 128 17.0 19.0 0.00 0.00 0.00 68 348.3
20260505041637 73 148 13.0 17.0 0.00 0.00 0.00 67 348.4
20260505041134 73 136 15.0 17.0 0.00 0.00 0.00 67 348.2
20260505040631 72 142 13.0 16.0 0.00 0.00 0.00 68 348.3
20260505040128 73 140 17.0 21.0 0.00 0.00 0.00 68 348.2
20260505035624 73 141 15.0 20.0 0.00 0.00 0.00 69 348.5
20260505035120 73 135 17.0 19.0 0.00 0.00 0.00 69 348.4
20260505034617 72 134 17.0 21.0 0.00 0.00 0.00 68 348.2
20260505034114 73 129 18.0 19.0 0.00 0.00 0.00 68 348.3
20260505033611 73 125 19.0 19.0 0.00 0.00 0.00 67 348.4
20260505033110 73 130 17.0 21.0 0.00 0.00 0.00 67 348.1
20260505032607 72 127 15.0 19.0 0.00 0.00 0.00 68 348.3
20260505032103 73 126 17.0 19.0 0.00 0.00 0.00 68 348.3
20260505031601 72 128 17.0 20.0 0.00 0.00 0.00 67 348.5
20260505031056 73 128 18.0 21.0 0.00 0.00 0.00 67 348.4
20260505030554 72 126 18.0 21.0 0.00 0.00 0.00 67 348.5
20260505030049 72 125 18.0 20.0 0.00 0.00 0.00 67 348.3
20260505025545 72 128 18.0 21.0 0.00 0.00 0.00 68 348.2
20260505025045 73 128 17.0 20.0 0.00 0.00 0.00 68 348.3
20260505024541 72 127 18.0 21.0 0.00 0.00 0.00 67 348.3
20260505024038 72 124 18.0 20.0 0.00 0.00 0.00 67 348.2
20260505023535 72 128 18.0 20.0 0.00 0.00 0.00 67 348.2
20260505023033 73 120 19.0 19.0 0.00 0.00 0.00 67 348.3
20260505022530 72 122 17.0 19.0 0.00 0.00 0.00 67 348.2
20260505022027 72 125 17.0 21.0 0.00 0.00 0.00 67 348.2
20260505021524 72 128 17.0 22.0 0.00 0.00 0.00 68 348.3
20260505021021 72 124 18.0 19.0 0.00 0.00 0.00 68 348.3
20260505020520 72 121 19.0 19.0 0.00 0.00 0.00 68 348.2
20260505020018 72 126 18.0 20.0 0.00 0.00 0.00 68 348.3
20260505015515 72 123 18.0 21.0 0.00 0.00 0.00 67 348.5
20260505015012 72 128 18.0 18.0 0.00 0.00 0.00 69 348.2
20260505014509 72 120 19.0 21.0 0.00 0.00 0.00 69 348.2
20260505014006 72 119 17.0 21.0 0.00 0.00 0.00 68 348.3
20260505013503 72 120 17.0 19.0 0.00 0.00 0.00 68 348.3
20260505013000 72 121 17.0 21.0 0.00 0.00 0.00 68 348.2
20260505012458 72 115 17.0 20.0 0.00 0.00 0.00 69 348.2
20260505011955 72 118 19.0 19.0 0.00 0.00 0.00 68 348.2
20260505011450 72 129 17.0 20.0 0.00 0.00 0.00 68 348.2
20260505010947 72 123 17.0 20.0 0.00 0.00 0.00 68 348.3
20260505010443 72 123 17.0 20.0 0.00 0.00 0.00 67 348.1
20260505005939 73 121 18.0 21.0 0.00 0.00 0.00 68 348.2
20260505005436 72 123 19.0 22.0 0.00 0.00 0.00 67 348.0
20260505004934 72 123 15.0 18.0 0.00 0.00 0.00 65 348.2
20260505004430 72 118 17.0 21.0 0.00 0.00 0.00 67 348.2
20260505003927 72 126 17.0 19.0 0.00 0.00 0.00 67 348.2
20260505003425 73 116 20.0 21.0 0.00 0.00 0.00 66 348.3
20260505002921 73 116 17.0 19.0 0.00 0.00 0.00 65 348.3
20260505002417 73 136 17.0 19.0 0.00 0.00 0.00 65 348.2
20260505001916 73 126 17.0 21.0 0.00 0.00 0.00 66 348.2
20260505001413 73 118 17.0 18.0 0.00 0.00 0.00 66 348.3
20260505000910 73 123 16.0 19.0 0.00 0.00 0.00 67 348.2
20260505000408 73 123 16.0 18.0 0.00 0.00 0.00 66 348.2
20260504235904 72 125 17.0 19.0 0.00 0.00 0.00 65 348.2
20260504235401 73 127 17.0 18.0 0.00 0.00 0.00 67 348.3
20260504234857 73 119 17.0 19.0 0.00 0.00 0.00 67 348.3
20260504234355 73 129 18.0 21.0 0.00 0.00 0.00 66 348.3
20260504233852 73 127 17.0 18.0 0.00 0.00 0.00 66 348.2
20260504233347 73 122 17.0 20.0 0.00 0.00 0.00 65 348.3
20260504232844 73 128 16.0 21.0 0.00 0.00 0.00 65 348.1
20260504232341 73 131 17.0 19.0 0.00 0.00 0.00 66 348.1
20260504231838 73 131 16.0 19.0 0.00 0.00 0.00 65 348.2
20260504231334 73 131 17.0 20.0 0.00 0.00 0.00 65 348.2
20260504230831 73 134 18.0 19.0 0.00 0.00 0.00 64 348.1
20260504230329 73 128 17.0 19.0 0.00 0.00 0.00 64 348.3
20260504225827 73 125 17.0 21.0 0.00 0.00 0.00 64 348.2
20260504225323 73 122 16.0 19.0 0.00 0.00 0.00 64 348.1
20260504224821 73 126 15.0 17.0 0.00 0.00 0.00 63 348.1
20260504224318 73 127 16.0 21.0 0.00 0.00 0.00 64 348.0
20260504223814 73 126 17.0 17.0 0.00 0.00 0.00 64 348.3
20260504223310 73 131 16.0 19.0 0.00 0.00 0.00 65 348.3
20260504222807 73 131 17.0 19.0 0.00 0.00 0.00 64 348.1
20260504222305 73 131 15.0 19.0 0.00 0.00 0.00 64 348.1
20260504221802 73 121 18.0 20.0 0.00 0.00 0.00 64 348.1
20260504221258 73 136 19.0 21.0 0.00 0.00 0.00 65 348.1
20260504220755 73 129 17.0 19.0 0.00 0.00 0.00 65 348.1
20260504220252 73 131 16.0 19.0 0.00 0.00 0.00 66 348.1
20260504215749 73 129 14.0 21.0 0.00 0.00 0.00 65 348.4
20260504215246 73 138 17.0 19.0 0.00 0.00 0.00 66 348.1
20260504214741 73 125 17.0 19.0 0.00 0.00 0.00 64 348.2
20260504214238 73 123 15.0 19.0 0.00 0.00 0.00 64 348.2
20260504213735 73 139 17.0 19.0 0.00 0.00 0.00 64 348.2
20260504213231 73 128 18.0 20.0 0.00 0.00 0.00 65 348.2
20260504212729 73 128 16.0 19.0 0.00 0.00 0.00 64 348.1
20260504212225 73 123 17.0 18.0 0.00 0.00 0.00 63 348.1
20260504211723 73 127 15.0 21.0 0.00 0.00 0.00 64 348.2
20260504211219 73 130 18.0 19.0 0.00 0.00 0.00 65 348.2
20260504210716 73 129 15.0 17.0 0.00 0.00 0.00 66 348.2
20260504210213 73 122 18.0 21.0 0.00 0.00 0.00 64 348.0
20260504205710 73 137 19.0 21.0 0.00 0.00 0.00 66 348.1
20260504205208 73 125 17.0 20.0 0.00 0.00 0.00 65 348.1
20260504204706 73 126 17.0 20.0 0.00 0.00 0.00 66 348.1
20260504204204 73 127 16.0 18.0 0.00 0.00 0.00 66 348.1
20260504203703 73 127 20.0 22.0 0.00 0.00 0.00 65 348.2
20260504203201 73 128 16.0 21.0 0.00 0.00 0.00 65 348.1
20260504202700 73 122 18.0 20.0 0.00 0.00 0.00 65 348.1
20260504202158 73 139 21.0 22.0 0.00 0.00 0.00 67 348.0
20260504201654 73 127 18.0 20.0 0.00 0.00 0.00 66 348.0
20260504201152 73 122 15.0 20.0 0.00 0.00 0.00 66 348.1
20260504200649 73 125 17.0 21.0 0.00 0.00 0.00 66 348.1
20260504200146 73 138 19.0 19.0 0.00 0.00 0.00 66 348.0
20260504195641 73 126 18.0 19.0 0.00 0.00 0.00 66 348.0
20260504195138 73 127 16.0 20.0 0.00 0.00 0.00 67 348.2
20260504194635 73 131 15.0 19.0 0.00 0.00 0.00 65 348.0
20260504194131 73 133 17.0 19.0 0.00 0.00 0.00 66 348.1
20260504193627 73 138 17.0 19.0 0.00 0.00 0.00 65 347.9
20260504193126 74 129 15.0 19.0 0.00 0.00 0.00 66 347.9
20260504192623 74 128 14.0 16.0 0.00 0.00 0.00 65 347.9
20260504192121 74 121 17.0 18.0 0.00 0.00 0.00 65 348.0
20260504191619 74 135 17.0 17.0 0.00 0.00 0.00 66 348.0
20260504191115 74 120 13.0 16.0 0.00 0.00 0.00 67 347.8
20260504190611 74 121 14.0 16.0 0.00 0.00 0.00 65 347.9
20260504190108 74 117 14.0 14.0 0.00 0.00 0.00 65 347.9
20260504185605 74 114 11.0 13.0 0.00 0.00 0.00 64 347.8
20260504185101 74 114 11.0 14.0 0.00 0.00 0.00 64 347.9
20260504184557 75 95 11.0 13.0 0.00 0.00 0.00 62 347.9
20260504184052 75 92 12.0 12.0 0.00 0.00 0.00 61 347.8
20260504183549 76 81 12.0 15.0 0.00 0.00 0.00 63 347.9
20260504183047 76 79 6.0 12.0 0.00 0.00 0.00 63 347.9
20260504182544 75 84 10.0 16.0 0.00 0.00 0.00 63 347.9
20260504182042 76 86 12.0 12.0 0.00 0.00 0.00 63 347.8
20260504181539 75 70 9.0 14.0 0.00 0.00 0.00 62 348.0
20260504181037 75 79 12.0 14.0 0.00 0.00 0.00 64 347.9
20260504180535 75 79 12.0 16.0 0.00 0.00 0.00 63 347.7
20260504180034 75 78 8.0 14.0 0.00 0.00 0.00 64 348.0
20260504175531 75 85 10.0 15.0 0.00 0.00 0.00 64 348.0
20260504175028 75 82 12.0 16.0 0.00 0.00 0.00 62 347.9
20260504174526 76 80 11.0 15.0 0.00 0.00 0.00 61 348.0
20260504174022 76 83 11.0 13.0 0.00 0.00 0.00 63 348.0
20260504173519 75 87 7.0 15.0 0.00 0.00 0.00 62 348.0
20260504173016 75 84 12.0 15.0 0.00 0.00 0.00 62 348.0
20260504172512 74 84 9.0 16.0 0.00 0.00 0.00 64 348.0
20260504172009 75 71 13.0 14.0 0.00 0.00 0.00 62 348.0
20260504171506 75 70 14.0 16.0 0.00 0.00 0.00 61 347.9
20260504171003 75 72 14.0 15.0 0.00 0.00 0.00 63 347.8
20260504170459 75 84 13.0 15.0 0.00 0.00 0.00 63 347.7
20260504160419 74 83 10.0 15.0 0.00 0.00 0.00 63 347.9
20260504150843 73 53 17.0 17.0 0.00 0.00 0.00 65 348.1
20260504150339 72 56 15.0 17.0 0.00 0.00 0.00 65 347.9
20260504141309 72 55 15.0 18.0 0.00 0.00 0.00 67 348.0
20260504140806 72 68 15.0 19.0 0.00 0.00 0.00 66 348.2
20260504140302 72 56 16.0 19.0 0.00 0.00 0.00 66 348.1
20260504130730 72 60 13.0 17.0 0.00 0.00 0.00 63 348.1
20260504130226 72 58 12.0 15.0 0.00 0.00 0.00 66 348.1